Regional Weather Roundup
Issued by NWS Newport/Morehead, NC

Current Version | Previous Version | Text Only | Print | Product List | Glossary Off
Versions: 1 2 3 4 5 6 7 8 9 10 11 12 13 14 15 16 17 18 19 20 21 22 23 24 25 26 27 28 29 30 31 32 33 34 35 36 37 38 39 40 41 42 43 44 45 46 47 48 49 50
000 ASUS42 KMHX 280225 RWRMHX WEATHER ROUNDUP FOR EASTERN NORTH CAROLINA NATIONAL WEATHER SERVICE NEWPORT/MOREHEAD CITY NC 1000 PM EDT FRI MAY 27 2016 NOTE: "FAIR" INDICATES FEW OR NO CLOUDS BELOW 12,000 FEET WITH NO SIGNIFICANT WEATHER AND/OR OBSTRUCTIONS TO VISIBILITY NCZ015>017-031-032-045>047-102-103-280300- NORTH COAST CITY SKY/WX TMP DP RH WIND PRES REMARKS EDENTON CLEAR N/A N/A N/A SE5 30.17R ELIZABETH CITY CLEAR 71 63 75 S7 30.16R KITTY HAWK CLEAR 68 60 76 CALM 30.17R MANTEO NOT AVBL $$ NCZ045>047-081-094-103-104-280300- CENTRAL COAST CITY SKY/WX TMP DP RH WIND PRES REMARKS FRISCO CLEAR 74 65 73 SE7 30.17R $$ NCZ095-097-098-100-101-280300- SOUTHERN COAST CITY SKY/WX TMP DP RH WIND PRES REMARKS BEAUFORT CLEAR 73 63 70 E5 30.14S CEDAR ISLAND NOT AVBL JACKSONVILLE PTCLDY 72 63 73 E6 30.14R PINEY ISLAND PTCLDY N/A N/A N/A SE6 30.15R WILMINGTON CLOUDY 72 66 81 E3 30.13R $$ NCZ011>013-027>030-043-044-078>080-089-090>093-098-280300- COASTAL PLAIN CITY SKY/WX TMP DP RH WIND PRES REMARKS AHOSKIE CLEAR 69 60 73 SE6 30.15R CLINTON CLEAR 70 62 74 CALM 30.14R ELIZABETHTOWN CLEAR 70 60 70 CALM 30.13R GOLDSBORO CLEAR 72 59 63 VRB3 30.13R GREENVILLE CLEAR 72 59 64 S5 30.16R HAVELOCK CLEAR 68 61 78 SE6 30.15R KENANSVILLE CLEAR 64 58 79 CALM 30.15S KINSTON CLEAR 70 60 69 S5 30.15 NEW BERN CLEAR 66 59 78 CALM 30.16R RICHLANDS PTCLDY 65 62 90 CALM 30.15R ROCKY MOUNT CLEAR 73 58 59 S3 30.13R WASHINGTON CLEAR 71 62 74 SE5 30.15R WHITEVILLE CLEAR 67 61 81 CALM 30.12R $$ AMZ130-135-150-152-154-156-158-170-250-252-270-ANZ085-086-088-633-658-670-280300- MARINE OBSERVATIONS STATION/POSITION TIME TEMP WIND PRES WAVE SWELL AIR SEA DIR/SP/G HT/PER HT/PER (UTC) (F) (DEG/KT/KT) (MB) (FT/S) (FT/S) CHESAPEAKE LIGHT 0200 71 170/ 20/ 22 1021.5 64 E VA BEACH 0150 66 63 170/ 6/ 6 1021.6 2/ 7 2/ 7 DUCK 0200 150/ 9/ 9 1021.1 2 E DUCK 0111 64 N/A 1/ 8 OREGON INLET 0200 130/ 4/ 6 1021.8 13E OREGON INLT 0200 69 N/A 2/ 7 2/ 7 HATTERAS CG 0200 150/ 6/ 8 1021.0 DIAMOND BUOY 0150 76 78 140/ 10/ 10 1021.2 3/ 8 2/ 8 CAPE LOOKOUT 0200 74 80/ 7/ 8 1020.5 BEAUFORT LAB 0200 100/ 6/ 7 1020.0 30 SE NEW RVR IN 0125 75 N/A 3/ 7 27 SE WRIGHTSVLE 0208 76 74 100/ 8/ 12 1019.6 5 SE WRIGHTSVLE 0108 75 75 120/ 8/ 12 1020.2 225 S CAPE HAT 0150 77 77 90/ 19/ 23 1017.4 6/ 9 3/ 9 41 SE CHARLESTON 0150 76 76 70/ 12/ 14 1017.8 3/ 8 2/ 8 $$

USA.gov is the U.S. government's official web portal to all federal, state and local government web resources and services.